| time (UTC) | temp F | wind direction | speed knots | gust knots | rain 1hr in | rain 24hr in | rain mn in | humidity % | barometer mb |
| 20260506014508 | 75 | 240 | 1.7 | 6.1 | 0.00 | 0.00 | 0.00 | 85 | 1008.3 |
| 20260506013508 | 75 | 130 | 0.9 | 6.1 | 0.00 | 0.00 | 0.00 | 85 | 1008.4 |
| 20260506013010 | 75 | 133 | 1.7 | 7.0 | 0.00 | 0.00 | 0.00 | 84 | 1008.3 |
| 20260506012008 | 75 | 222 | 0.9 | 3.5 | 0.00 | 0.00 | 0.00 | 84 | 1008.3 |
| 20260506011508 | 75 | 212 | 0.9 | 3.5 | 0.00 | 0.00 | 0.00 | 84 | 1008.2 |
| 20260506011008 | 76 | 169 | 0.9 | 3.5 | 0.00 | 0.00 | 0.00 | 83 | 1008.0 |
| 20260506010007 | 76 | 295 | 0.9 | 7.0 | 0.00 | 0.00 | 0.00 | 83 | 1008.0 |
| 20260506005507 | 76 | 219 | 0.9 | 3.5 | 0.00 | 0.00 | 0.00 | 83 | 1008.0 |
| 20260506005007 | 76 | 180 | 0.9 | 5.2 | 0.00 | 0.00 | 0.00 | 82 | 1008.2 |
| 20260506004508 | 76 | 221 | 1.7 | 5.2 | 0.00 | 0.00 | 0.00 | 82 | 1008.0 |
| 20260506004008 | 76 | 125 | 1.7 | 6.1 | 0.00 | 0.00 | 0.00 | 82 | 1008.1 |
| 20260506003009 | 77 | 235 | 0.9 | 3.5 | 0.00 | 0.00 | 0.00 | 82 | 1008.1 |
| 20260506002007 | 77 | 205 | 1.7 | 6.1 | 0.00 | 0.00 | 0.00 | 82 | 1008.2 |
| 20260506001507 | 77 | 179 | 1.7 | 6.1 | 0.00 | 0.00 | 0.00 | 81 | 1008.3 |
| 20260506001008 | 77 | 196 | 1.7 | 6.1 | 0.00 | 0.00 | 0.00 | 81 | 1008.4 |
| 20260506000506 | 77 | 242 | 1.7 | 7.0 | 0.00 | 0.00 | 0.00 | 81 | 1008.4 |
| 20260506000009 | 77 | 255 | 0.9 | 6.1 | 0.00 | 0.00 | 0.00 | 81 | 1008.2 |
| 20260505235507 | 77 | 227 | 1.7 | 6.1 | 0.00 | 0.00 | 0.00 | 81 | 1008.3 |
| 20260505234506 | 77 | 239 | 1.7 | 7.0 | 0.00 | 0.00 | 0.00 | 80 | 1008.2 |
| 20260505234007 | 77 | 248 | 1.7 | 7.0 | 0.00 | 0.00 | 0.00 | 80 | 1008.2 |
| 20260505233507 | 78 | 246 | 1.7 | 4.3 | 0.00 | 0.00 | 0.00 | 80 | 1008.2 |
| 20260505233009 | 78 | 226 | 1.7 | 7.0 | 0.00 | 0.00 | 0.00 | 80 | 1008.2 |
| 20260505232007 | 78 | 226 | 1.7 | 6.1 | 0.00 | 0.00 | 0.00 | 80 | 1008.2 |
| 20260505231506 | 78 | 279 | 2.6 | 7.0 | 0.00 | 0.00 | 0.00 | 80 | 1008.1 |
| 20260505230506 | 78 | 27 | 1.7 | 7.0 | 0.00 | 0.00 | 0.00 | 79 | 1008.0 |
| 20260505225506 | 78 | 215 | 1.7 | 5.2 | 0.00 | 0.00 | 0.00 | 79 | 1008.2 |
| 20260505225008 | 78 | 181 | 1.7 | 4.3 | 0.00 | 0.00 | 0.00 | 79 | 1008.2 |
| 20260505224506 | 78 | 234 | 1.7 | 7.8 | 0.00 | 0.00 | 0.00 | 79 | 1008.2 |
| 20260505224008 | 78 | 180 | 1.7 | 7.8 | 0.00 | 0.00 | 0.00 | 79 | 1008.2 |
| 20260505223505 | 78 | 229 | 2.6 | 7.0 | 0.00 | 0.00 | 0.00 | 79 | 1008.2 |
| 20260505223008 | 78 | 247 | 2.6 | 6.1 | 0.00 | 0.00 | 0.00 | 79 | 1008.1 |
| 20260505222506 | 79 | 188 | 1.7 | 7.8 | 0.00 | 0.00 | 0.00 | 79 | 1008.1 |
| 20260505222008 | 79 | 240 | 1.7 | 7.8 | 0.00 | 0.00 | 0.00 | 79 | 1008.1 |
| 20260505221007 | 79 | 154 | 1.7 | 8.7 | 0.00 | 0.00 | 0.00 | 79 | 1008.1 |
| 20260505220505 | 79 | 158 | 2.6 | 8.7 | 0.00 | 0.00 | 0.00 | 78 | 1008.1 |
| 20260505220008 | 79 | 198 | 2.6 | 13.0 | 0.00 | 0.00 | 0.00 | 79 | 1008.1 |
| 20260505215508 | 79 | 197 | 2.6 | 13.0 | 0.00 | 0.00 | 0.00 | 79 | 1008.1 |
| 20260505215007 | 79 | 45 | 2.6 | 12.2 | 0.00 | 0.00 | 0.00 | 79 | 1008.2 |
| 20260505214506 | 78 | 171 | 3.5 | 7.8 | 0.00 | 0.00 | 0.00 | 79 | 1008.1 |
| 20260505214007 | 78 | 242 | 2.6 | 8.7 | 0.00 | 0.00 | 0.00 | 79 | 1008.2 |
| 20260505213506 | 78 | 194 | 2.6 | 7.0 | 0.00 | 0.00 | 0.00 | 79 | 1008.2 |
| 20260505213009 | 78 | 160 | 3.5 | 9.6 | 0.00 | 0.00 | 0.00 | 80 | 1008.2 |
| 20260505212507 | 78 | 102 | 3.5 | 8.7 | 0.00 | 0.00 | 0.00 | 80 | 1008.3 |
| 20260505212006 | 78 | 153 | 2.6 | 7.0 | 0.00 | 0.00 | 0.00 | 80 | 1008.5 |
| 20260505211506 | 78 | 273 | 2.6 | 7.0 | 0.00 | 0.00 | 0.00 | 81 | 1008.6 |
| 20260505211007 | 77 | 239 | 1.7 | 7.0 | 0.00 | 0.00 | 0.00 | 81 | 1008.7 |
| 20260505210010 | 77 | 211 | 1.7 | 7.0 | 0.00 | 0.00 | 0.00 | 82 | 1008.9 |
| 20260505205506 | 77 | 169 | 1.7 | 7.0 | 0.00 | 0.00 | 0.00 | 82 | 1008.9 |
| 20260505205009 | 76 | 245 | 1.7 | 3.5 | 0.00 | 0.00 | 0.00 | 82 | 1008.9 |
| 20260505204506 | 76 | 211 | 1.7 | 6.1 | 0.00 | 0.00 | 0.00 | 82 | 1009.0 |
| 20260505204009 | 76 | 219 | 1.7 | 7.0 | 0.00 | 0.00 | 0.00 | 82 | 1009.0 |
| 20260505203507 | 76 | 274 | 1.7 | 7.8 | 0.00 | 0.00 | 0.00 | 82 | 1009.2 |
| 20260505203008 | 76 | 220 | 0.9 | 7.8 | 0.00 | 0.00 | 0.00 | 82 | 1009.2 |
| 20260505202506 | 76 | 184 | 0.9 | 5.2 | 0.00 | 0.00 | 0.00 | 81 | 1009.2 |
| 20260505202009 | 76 | 224 | 1.7 | 4.3 | 0.00 | 0.00 | 0.00 | 81 | 1009.3 |
| 20260505201507 | 76 | 253 | 1.7 | 7.0 | 0.00 | 0.00 | 0.00 | 81 | 1009.3 |
| 20260505201008 | 76 | 186 | 2.6 | 9.6 | 0.00 | 0.00 | 0.00 | 81 | 1009.5 |
| 20260505200508 | 76 | 188 | 2.6 | 9.6 | 0.00 | 0.00 | 0.00 | 81 | 1009.2 |
| 20260505195506 | 76 | 177 | 1.7 | 5.2 | 0.00 | 0.00 | 0.00 | 80 | 1009.5 |
| 20260505195007 | 76 | 172 | 1.7 | 5.2 | 0.00 | 0.00 | 0.00 | 80 | 1009.5 |
| 20260505194507 | 77 | 242 | 2.6 | 6.1 | 0.00 | 0.00 | 0.00 | 80 | 1009.5 |
| 20260505194008 | 77 | 200 | 2.6 | 9.6 | 0.00 | 0.00 | 0.00 | 79 | 1009.7 |
| 20260505193506 | 77 | 235 | 2.6 | 9.6 | 0.00 | 0.00 | 0.00 | 79 | 1009.5 |
| 20260505193009 | 77 | 264 | 1.7 | 4.3 | 0.00 | 0.00 | 0.00 | 79 | 1009.5 |
| 20260505192505 | 77 | 159 | 1.7 | 6.1 | 0.00 | 0.00 | 0.00 | 79 | 1009.4 |
| 20260505192007 | 77 | 235 | 2.6 | 8.7 | 0.00 | 0.00 | 0.00 | 79 | 1009.5 |
| 20260505191508 | 77 | 70 | 1.7 | 8.7 | 0.00 | 0.00 | 0.00 | 78 | 1009.5 |
| 20260505191008 | 77 | 317 | 1.7 | 8.7 | 0.00 | 0.00 | 0.00 | 79 | 1009.5 |
| 20260505190506 | 77 | 124 | 2.6 | 8.7 | 0.00 | 0.00 | 0.00 | 79 | 1009.5 |
| 20260505190011 | 77 | 192 | 2.6 | 7.0 | 0.00 | 0.00 | 0.00 | 79 | 1009.5 |
| 20260505185008 | 77 | 230 | 2.6 | 6.1 | 0.00 | 0.00 | 0.00 | 79 | 1009.8 |
| 20260505184509 | 77 | 206 | 2.6 | 7.0 | 0.00 | 0.00 | 0.00 | 79 | 1009.8 |
| 20260505184007 | 76 | 146 | 1.7 | 5.2 | 0.00 | 0.00 | 0.00 | 79 | 1009.7 |
| 20260505183507 | 76 | 229 | 1.7 | 5.2 | 0.00 | 0.00 | 0.00 | 79 | 1009.8 |
| 20260505183010 | 76 | 262 | 1.7 | 7.8 | 0.00 | 0.00 | 0.00 | 79 | 1009.8 |
| 20260505182508 | 76 | 192 | 1.7 | 4.3 | 0.00 | 0.00 | 0.00 | 79 | 1009.8 |
| 20260505181507 | 76 | 171 | 1.7 | 7.0 | 0.00 | 0.00 | 0.00 | 79 | 1009.8 |
| 20260505181007 | 76 | 259 | 1.7 | 7.0 | 0.00 | 0.00 | 0.00 | 79 | 1009.9 |
| 20260505180507 | 76 | 226 | 1.7 | 6.1 | 0.00 | 0.00 | 0.00 | 79 | 1010.0 |
| 20260505180012 | 76 | 173 | 1.7 | 6.1 | 0.00 | 0.00 | 0.00 | 79 | 1009.9 |
| 20260505175506 | 76 | 114 | 2.6 | 6.1 | 0.00 | 0.00 | 0.00 | 79 | 1010.1 |
| 20260505174007 | 76 | 196 | 2.6 | 9.6 | 0.00 | 0.00 | 0.00 | 79 | 1010.2 |
| 20260505173508 | 76 | 188 | 2.6 | 7.8 | 0.00 | 0.00 | 0.00 | 80 | 1010.2 |
| 20260505172508 | 76 | 269 | 1.7 | 7.0 | 0.00 | 0.00 | 0.00 | 81 | 1010.1 |
| 20260505171509 | 75 | 74 | 0.9 | 3.5 | 0.00 | 0.00 | 0.00 | 82 | 1010.1 |
| 20260505171009 | 74 | 188 | 0.9 | 2.6 | 0.00 | 0.00 | 0.00 | 83 | 1010.2 |
| 20260505170010 | 74 | 150 | 0.9 | 3.5 | 0.00 | 0.00 | 0.00 | 82 | 1010.4 |
| 20260505165507 | 74 | 160 | 1.7 | 2.6 | 0.00 | 0.00 | 0.00 | 82 | 1010.4 |
| 20260505165007 | 74 | 175 | 0.9 | 3.5 | 0.00 | 0.00 | 0.00 | 83 | 1010.3 |
| 20260505164508 | 73 | 241 | 0.9 | 6.1 | 0.00 | 0.00 | 0.00 | 83 | 1010.3 |
| 20260505164009 | 73 | 201 | 0.9 | 6.1 | 0.00 | 0.00 | 0.00 | 83 | 1010.4 |
| 20260505163506 | 73 | 247 | 1.7 | 6.1 | 0.00 | 0.00 | 0.00 | 82 | 1010.5 |
| 20260505163009 | 73 | 196 | 2.6 | 7.8 | 0.00 | 0.00 | 0.00 | 82 | 1010.6 |
| 20260505162506 | 73 | 232 | 1.7 | 7.8 | 0.00 | 0.00 | 0.00 | 82 | 1010.6 |
| 20260505162007 | 73 | 241 | 1.7 | 6.1 | 0.00 | 0.00 | 0.00 | 82 | 1010.4 |
| 20260505161507 | 73 | 225 | 1.7 | 3.5 | 0.00 | 0.00 | 0.00 | 82 | 1010.3 |
| 20260505160507 | 73 | 250 | 2.6 | 7.8 | 0.00 | 0.00 | 0.00 | 82 | 1010.1 |
| 20260505153010 | 72 | 205 | 1.7 | 6.1 | 0.00 | 0.00 | 0.00 | 83 | 1010.1 |
| 20260505152007 | 71 | 150 | 1.7 | 3.5 | 0.00 | 0.00 | 0.00 | 84 | 1010.4 |
| 20260505151507 | 71 | 238 | 1.7 | 6.1 | 0.00 | 0.00 | 0.00 | 84 | 1010.4 |
| 20260505151008 | 71 | 225 | 1.7 | 6.1 | 0.00 | 0.00 | 0.00 | 84 | 1010.5 |
| 20260505150507 | 71 | 251 | 1.7 | 6.1 | 0.00 | 0.00 | 0.00 | 84 | 1010.5 |
| 20260505140506 | 68 | 15 | 0.9 | 4.3 | 0.00 | 0.00 | 0.00 | 85 | 1010.4 |
| 20260505125006 | 67 | 205 | 0.9 | 6.1 | 0.00 | 0.00 | 0.00 | 85 | 1010.3 |
| 20260505124507 | 66 | 174 | 1.7 | 5.2 | 0.00 | 0.00 | 0.00 | 85 | 1010.2 |
| 20260505124006 | 66 | 205 | 1.7 | 5.2 | 0.00 | 0.00 | 0.00 | 85 | 1010.2 |
| 20260505123505 | 66 | 214 | 1.7 | 6.1 | 0.00 | 0.00 | 0.00 | 85 | 1010.2 |
| 20260505122506 | 66 | 206 | 0.9 | 3.5 | 0.00 | 0.00 | 0.00 | 85 | 1010.4 |
| 20260505122007 | 66 | 197 | 0.9 | 4.3 | 0.00 | 0.00 | 0.00 | 85 | 1010.4 |
| 20260505121507 | 66 | 141 | 0.9 | 4.3 | 0.00 | 0.00 | 0.00 | 85 | 1010.3 |
| 20260505121007 | 66 | 258 | 0.9 | 3.5 | 0.00 | 0.00 | 0.00 | 85 | 1010.2 |
| 20260505120507 | 66 | 155 | 0.9 | 4.3 | 0.00 | 0.00 | 0.00 | 85 | 1010.2 |
| 20260505120010 | 66 | 213 | 0.9 | 4.3 | 0.00 | 0.00 | 0.00 | 85 | 1010.1 |
| 20260505115006 | 65 | 170 | 0.9 | 3.5 | 0.00 | 0.00 | 0.00 | 85 | 1009.8 |
| 20260505114508 | 65 | 71 | 0.9 | 3.5 | 0.00 | 0.00 | 0.00 | 85 | 1009.8 |
| 20260505114008 | 65 | 173 | 0.9 | 3.5 | 0.00 | 0.00 | 0.00 | 85 | 1009.8 |
| 20260505113506 | 65 | 198 | 0.9 | 3.5 | 0.00 | 0.00 | 0.00 | 85 | 1009.8 |
| 20260505113009 | 65 | 109 | 0.9 | 5.2 | 0.00 | 0.00 | 0.00 | 85 | 1009.7 |
| 20260505112007 | 65 | 224 | 0.9 | 4.3 | 0.00 | 0.00 | 0.00 | 84 | 1009.7 |
| 20260505111507 | 65 | 236 | 0.9 | 4.3 | 0.00 | 0.00 | 0.00 | 84 | 1009.8 |
| 20260505110509 | 65 | 115 | 0.9 | 7.0 | 0.00 | 0.00 | 0.00 | 84 | 1009.7 |
| 20260505102007 | 65 | 209 | 1.7 | 5.2 | 0.00 | 0.00 | 0.00 | 83 | 1010.2 |
| 20260505101507 | 65 | 170 | 0.9 | 6.1 | 0.00 | 0.00 | 0.00 | 83 | 1010.2 |
| 20260505101006 | 65 | 254 | 0.9 | 6.1 | 0.00 | 0.00 | 0.00 | 83 | 1010.3 |
| 20260505100506 | 65 | 267 | 0.9 | 6.1 | 0.00 | 0.00 | 0.00 | 83 | 1010.4 |
| 20260505100007 | 65 | 192 | 1.7 | 6.1 | 0.00 | 0.00 | 0.00 | 82 | 1010.4 |
| 20260505095505 | 65 | 149 | 0.9 | 3.5 | 0.00 | 0.00 | 0.00 | 82 | 1010.4 |
| 20260505094506 | 65 | 251 | 1.7 | 8.7 | 0.00 | 0.00 | 0.00 | 82 | 1010.4 |
| 20260505094005 | 65 | 184 | 1.7 | 5.2 | 0.00 | 0.00 | 0.00 | 82 | 1010.4 |
| 20260505093505 | 65 | 192 | 1.7 | 5.2 | 0.00 | 0.00 | 0.00 | 82 | 1010.2 |
| 20260505093007 | 65 | 172 | 1.7 | 6.1 | 0.00 | 0.00 | 0.00 | 82 | 1010.3 |
| 20260505092506 | 65 | 182 | 0.9 | 4.3 | 0.00 | 0.00 | 0.00 | 82 | 1010.1 |
| 20260505091506 | 64 | 218 | 1.7 | 7.0 | 0.00 | 0.00 | 0.00 | 82 | 1010.2 |
| 20260505091006 | 64 | 232 | 0.9 | 5.2 | 0.00 | 0.00 | 0.00 | 82 | 1010.1 |
| 20260505090505 | 64 | 144 | 1.7 | 4.3 | 0.00 | 0.00 | 0.00 | 82 | 1010.2 |
| 20260505090009 | 64 | 146 | 1.7 | 5.2 | 0.00 | 0.00 | 0.00 | 82 | 1010.2 |
| 20260505085506 | 64 | 197 | 1.7 | 5.2 | 0.00 | 0.00 | 0.00 | 82 | 1010.3 |
| 20260505085008 | 64 | 140 | 0.9 | 4.3 | 0.00 | 0.00 | 0.00 | 82 | 1010.4 |
| 20260505084008 | 64 | 268 | 0.9 | 2.6 | 0.00 | 0.00 | 0.00 | 82 | 1010.6 |
| 20260505083505 | 64 | 90 | 0.9 | 3.5 | 0.00 | 0.00 | 0.00 | 82 | 1010.7 |
| 20260505083008 | 64 | 84 | 1.7 | 4.3 | 0.00 | 0.00 | 0.00 | 81 | 1010.6 |
| 20260505082007 | 64 | 224 | 0.9 | 4.3 | 0.00 | 0.00 | 0.00 | 81 | 1010.8 |
| 20260505081509 | 64 | 85 | 0.9 | 4.3 | 0.00 | 0.00 | 0.00 | 81 | 1010.6 |
| 20260505080507 | 64 | 308 | 0.9 | 3.5 | 0.00 | 0.00 | 0.00 | 81 | 1010.5 |
| 20260505080008 | 64 | 159 | 0.9 | 3.5 | 0.00 | 0.00 | 0.00 | 81 | 1010.5 |
| 20260505075506 | 64 | 219 | 0.9 | 4.3 | 0.00 | 0.00 | 0.00 | 81 | 1010.5 |
| 20260505074505 | 64 | 197 | 1.7 | 6.1 | 0.00 | 0.00 | 0.00 | 81 | 1010.8 |
| 20260505074006 | 64 | 236 | 1.7 | 6.1 | 0.00 | 0.00 | 0.00 | 81 | 1010.8 |
| 20260505073505 | 64 | 128 | 1.7 | 6.1 | 0.00 | 0.00 | 0.00 | 81 | 1010.5 |
| 20260505073009 | 64 | 184 | 0.9 | 4.3 | 0.00 | 0.00 | 0.00 | 81 | 1010.6 |
| 20260505072506 | 64 | 119 | 0.9 | 4.3 | 0.00 | 0.00 | 0.00 | 81 | 1010.8 |
| 20260505072007 | 64 | 68 | 0.9 | 4.3 | 0.00 | 0.00 | 0.00 | 81 | 1010.7 |
| 20260505071506 | 64 | 62 | 0.9 | 4.3 | 0.00 | 0.00 | 0.00 | 81 | 1010.8 |
| 20260505071007 | 64 | 198 | 0.9 | 3.5 | 0.00 | 0.00 | 0.00 | 80 | 1010.9 |
| 20260505070506 | 64 | 261 | 0.9 | 3.5 | 0.00 | 0.00 | 0.00 | 80 | 1010.8 |
| 20260505070008 | 64 | 250 | 0.9 | 3.5 | 0.00 | 0.00 | 0.00 | 80 | 1011.0 |
| 20260505065505 | 64 | 178 | 0.9 | 7.0 | 0.00 | 0.00 | 0.00 | 80 | 1011.2 |
| 20260505065005 | 64 | 29 | 0.9 | 7.0 | 0.00 | 0.00 | 0.00 | 80 | 1011.2 |
| 20260505063505 | 65 | 175 | 0.9 | 3.5 | 0.00 | 0.00 | 0.00 | 79 | 1011.3 |
| 20260505063008 | 65 | 218 | 0.0 | 3.5 | 0.00 | 0.00 | 0.00 | 79 | 1011.2 |
| 20260505062506 | 65 | 242 | 0.0 | 2.6 | 0.00 | 0.00 | 0.00 | 79 | 1011.2 |
| 20260505062007 | 65 | 149 | 0.0 | 0.9 | 0.00 | 0.00 | 0.00 | 79 | 1011.4 |
| 20260505061506 | 65 | 149 | 0.0 | 0.9 | 0.00 | 0.00 | 0.00 | 78 | 1011.5 |
| 20260505060506 | 65 | 69 | 0.9 | 3.5 | 0.00 | 0.00 | 0.00 | 78 | 1011.6 |
| 20260505060014 | 65 | 69 | 0.9 | 3.5 | 0.00 | 0.00 | 0.00 | 78 | 1011.5 |
| 20260505055507 | 65 | 200 | 0.0 | 3.5 | 0.00 | 0.00 | 0.00 | 78 | 1011.5 |
| 20260505054008 | 65 | 157 | 0.9 | 5.2 | 0.00 | 0.00 | 0.00 | 78 | 1011.5 |
| 20260505053507 | 65 | 275 | 0.9 | 5.2 | 0.00 | 0.00 | 0.00 | 78 | 1011.6 |
| 20260505053010 | 65 | 286 | 0.9 | 3.5 | 0.00 | 0.00 | 0.00 | 78 | 1011.6 |
| 20260505052508 | 65 | 160 | 0.9 | 5.2 | 0.00 | 0.00 | 0.00 | 79 | 1011.6 |
| 20260505052010 | 65 | 142 | 1.7 | 5.2 | 0.00 | 0.00 | 0.00 | 79 | 1011.5 |
| 20260505051509 | 65 | 229 | 1.7 | 3.5 | 0.00 | 0.00 | 0.00 | 79 | 1011.8 |
| 20260505051008 | 65 | 49 | 0.9 | 6.1 | 0.00 | 0.00 | 0.00 | 80 | 1011.7 |
| 20260505050509 | 65 | 262 | 0.9 | 6.1 | 0.00 | 0.00 | 0.00 | 80 | 1011.7 |
| 20260505041511 | 66 | 227 | 0.0 | 2.6 | 0.00 | 0.00 | 0.00 | 78 | 1012.5 |
| 20260505041010 | 66 | 244 | 0.9 | 2.6 | 0.00 | 0.00 | 0.00 | 78 | 1012.3 |
| 20260505040507 | 66 | 183 | 0.9 | 4.3 | 0.00 | 0.00 | 0.00 | 77 | 1012.2 |
| 20260505040008 | 67 | 266 | 0.9 | 4.3 | 0.00 | 0.00 | 0.00 | 76 | 1012.1 |
| 20260505035507 | 67 | 255 | 0.9 | 2.6 | 0.00 | 0.00 | 0.00 | 76 | 1012.0 |
| 20260505034507 | 67 | 213 | 1.7 | 4.3 | 0.00 | 0.00 | 0.00 | 76 | 1012.1 |
| 20260505034009 | 67 | 230 | 0.9 | 4.3 | 0.00 | 0.00 | 0.00 | 76 | 1012.0 |
| 20260505033507 | 67 | 205 | 0.9 | 6.1 | 0.00 | 0.00 | 0.00 | 76 | 1011.9 |
| 20260505033008 | 67 | 207 | 0.9 | 6.1 | 0.00 | 0.00 | 0.00 | 75 | 1011.8 |
| 20260505032008 | 67 | 203 | 0.9 | 5.2 | 0.00 | 0.00 | 0.00 | 75 | 1011.7 |
| 20260505031507 | 67 | 223 | 0.9 | 4.3 | 0.00 | 0.00 | 0.00 | 74 | 1011.8 |
| 20260505030011 | 68 | 134 | 0.9 | 4.3 | 0.00 | 0.00 | 0.00 | 73 | 1011.8 |
| 20260505024509 | 68 | 176 | 0.9 | 5.2 | 0.00 | 0.00 | 0.00 | 72 | 1011.5 |
| 20260505024009 | 68 | 200 | 0.9 | 5.2 | 0.00 | 0.00 | 0.00 | 72 | 1011.6 |
| 20260505023508 | 68 | 226 | 0.9 | 3.5 | 0.00 | 0.00 | 0.00 | 72 | 1011.5 |
| 20260505023009 | 68 | 195 | 0.9 | 3.5 | 0.00 | 0.00 | 0.00 | 72 | 1011.4 |
| 20260505022507 | 68 | 253 | 0.0 | 2.6 | 0.00 | 0.00 | 0.00 | 72 | 1011.4 |
| 20260505022009 | 68 | 132 | 0.9 | 3.5 | 0.00 | 0.00 | 0.00 | 71 | 1011.2 |
| 20260505021009 | 68 | 171 | 0.9 | 7.0 | 0.00 | 0.00 | 0.00 | 71 | 1011.1 |
| 20260505020508 | 69 | 203 | 0.9 | 7.0 | 0.00 | 0.00 | 0.00 | 71 | 1011.1 |
| 20260505020011 | 69 | 78 | 0.0 | 2.6 | 0.00 | 0.00 | 0.00 | 71 | 1011.0 |
| 20260505015507 | 69 | 220 | 0.0 | 2.6 | 0.00 | 0.00 | 0.00 | 71 | 1011.1 |
| 20260505015008 | 69 | 214 | 0.0 | 2.6 | 0.00 | 0.00 | 0.00 | 71 | 1011.0 |